Zacatecas Airport, Mexico

5:23 PM CDT on August 27, 2016 (GMT -0500)
Gen Leobardo C Ruiz International

Weather History for MMZC - December, 2012

Change the Weather History Date:

Wednesday, December 5, 2012

  Actual Average Record
Temperature  
Mean Temperature 51 °F -  
Max Temperature 69 °F 67 °F 75 °F (1998)
Min Temperature 33 °F 35 °F 26 °F (1999)
Degree Days  
Heating Degree Days 14    
Growing Degree Days 1 (Base 50)    
Moisture  
Dew Point 29 °F    
Average Humidity 41    
Maximum Humidity 75    
Minimum Humidity 21    
Precipitation  
Precipitation 0.00 in - - ()
Sea Level Pressure  
Sea Level Pressure 30.34 in    
Wind  
Wind Speed 4 mph ()    
Max Wind Speed 12 mph    
Max Gust Speed -    
Visibility 10.0 miles    
Events      
Averages and records for this station are not official NWS values.
T = Trace of Precipitation, MM = Missing Value Source: Averaged Metar Reports

Daily Weather History Graph

Daily Weather History Graph

Search for Another Location

Airport or City:

Trip Planner

Search our weather history database for the weather conditions in past years. The results will help you decide how hot, cold, wet, or windy it might be!

Date:

Astronomy

Dec. 05, 2012 Rise Set
Actual Time 7:17 AM CST 6:05 PM CST
Civil Twilight 6:53 AM CST 6:29 PM CST
Nautical Twilight 6:25 AM CST 6:57 PM CST
Astronomical Twilight 5:58 AM CST 7:25 PM CST
Moon No Moon Rise 12:13 PM CST (12/5)
Length of Visible Light 11h 36m
Length of Day
10h 47m
Waning Gibbous, 59% of the Moon is Illuminated
Dec 5
Waning Gibbous
Dec 6
Last Quarter
Dec 13
New
Dec 19
First Quarter
Dec 28
Full

Hourly Weather History & Observations

Time (CST) Temp. Windchill Dew Point Humidity Pressure Visibility Wind Dir Wind Speed Gust Speed Precip Events Conditions
12:47 AM 44.6 °F 40.7 °F 28.4 °F 53% 30.40 in 10.0 mi ENE 6.9 mph - N/A   Clear
3:55 AM 37.4 °F - 26.6 °F 65% 30.28 in 10.0 mi Calm Calm - N/A   Clear
5:22 AM 35.6 °F - 23.0 °F 60% 30.38 in 10.0 mi Calm Calm - N/A   Clear
5:49 AM 35.6 °F - 23.0 °F 60% 30.39 in 10.0 mi Calm Calm - N/A   Clear
6:51 AM 33.8 °F 30.8 °F 26.6 °F 75% 30.40 in 10.0 mi SSW 3.5 mph - N/A   Clear
9:02 AM 48.2 °F - 32.0 °F 54% 30.43 in 10.0 mi Calm Calm - N/A   Clear
9:45 AM 53.6 °F - 33.8 °F 47% 30.43 in 10.0 mi North 5.8 mph - N/A   Clear
10:45 AM 62.6 °F - 35.6 °F 37% 30.42 in 10.0 mi ENE 11.5 mph - N/A   Clear
11:45 AM 64.4 °F - 33.8 °F 32% 30.40 in 10.0 mi East 6.9 mph - N/A   Clear
12:46 PM 68.0 °F - 32.0 °F 26% 30.36 in 10.0 mi NE 9.2 mph - N/A   Clear
1:55 PM 68.0 °F - 30.2 °F 24% 30.32 in 10.0 mi Calm Calm - N/A   Clear
2:50 PM 69.8 °F - 32.0 °F 25% 30.29 in 10.0 mi NNE 6.9 mph - N/A   Clear
3:40 PM 69.8 °F - 30.2 °F 23% 30.28 in 10.0 mi NNE 5.8 mph - N/A   Clear
4:40 PM 69.8 °F - 28.4 °F 21% 30.28 in 10.0 mi NE 6.9 mph - N/A   Clear
5:50 PM 64.4 °F - 26.6 °F 24% 30.28 in 10.0 mi NNE 6.9 mph - N/A   Clear
6:41 PM 57.2 °F - 26.6 °F 31% 30.28 in 10.0 mi NNE 5.8 mph - N/A   Clear
7:43 PM 55.4 °F - 28.4 °F 36% 30.29 in 10.0 mi ESE 6.9 mph - N/A   Clear
8:40 PM 55.4 °F - 28.4 °F 36% 30.30 in 10.0 mi ESE 6.9 mph - N/A   Clear
9:51 PM 44.6 °F 42.2 °F 24.8 °F 46% 30.31 in 10.0 mi SW 4.6 mph - N/A   Clear
10:41 PM 44.6 °F - 24.8 °F 46% 30.31 in 10.0 mi Calm Calm - N/A   Clear
11:42 PM 42.8 °F 40.1 °F 24.8 °F 49% 30.30 in 10.0 mi NNE 4.6 mph - N/A   Clear